When you browse on this site, cookies collect data to enhance your experience and personalize the content and advertising you see.
Visit our Privacy Policy to learn more. By continuing to use the site, you agree to this use of cookies and data.
  • In Latvia
  • List of Countries
  • For 7 days
  • Water Temperature
  • Weather Map
  • Weather Widgets
  • user-avatar
    Login

    Hourly Weather Djelfa

    Today, 5 June, Friday

    Time Temperature Precipitation Wind Pressure Humidity
    00:00 +17°C° 0 mm 11 mps 662 mmHg 60%
    01:00 +16°C° 0 mm 11 mps 661 mmHg 64%
    02:00 +15°C° 0 mm 12 mps 661 mmHg 68%
    03:00 +14°C° 0 mm 13 mps 661 mmHg 71%
    04:00 +14°C° 0 mm 12 mps 661 mmHg 73%
    05:00 +14°C° 0 mm 12 mps 661 mmHg 75%
    06:00 +14°C° 0 mm 12 mps 661 mmHg 77%
    07:00 +16°C° 0 mm 11 mps 662 mmHg 68%
    08:00 +17°C° 0 mm 11 mps 663 mmHg 59%
    09:00 +19°C° 0 mm 10 mps 663 mmHg 51%
    10:00 +21°C° 0 mm 10 mps 664 mmHg 46%
    11:00 +22°C° 0 mm 10 mps 664 mmHg 41%
    12:00 +23°C° 0 mm 9 mps 664 mmHg 37%
    13:00 +24°C° 0 mm 9 mps 664 mmHg 34%
    14:00 +26°C° 0 mm 8 mps 664 mmHg 32%
    15:00 +26°C° 0 mm 7 mps 664 mmHg 30%
    16:00 +26°C° 0 mm 7 mps 664 mmHg 31%
    17:00 +24°C° 0 mm 7 mps 664 mmHg 32%
    18:00 +24°C° 0 mm 6 mps 664 mmHg 34%
    19:00 +23°C° 0 mm 6 mps 665 mmHg 38%
    20:00 +22°C° 0 mm 5 mps 665 mmHg 43%
    21:00 +21°C° 0 mm 5 mps 665 mmHg 48%
    22:00 +20°C° 0 mm 4 mps 665 mmHg 53%
    23:00 +19°C° 0 mm 3 mps 665 mmHg 58%

    Tomorrow, 6 June, Saturday

    Time Temperature Precipitation Wind Pressure Humidity
    00:00 +19°C° 0 mm 3 mps 665 mmHg 64%
    01:00 +18°C° 0 mm 2 mps 665 mmHg 65%
    02:00 +18°C° 0 mm 2 mps 664 mmHg 67%
    03:00 +17°C° 0 mm 2 mps 664 mmHg 68%
    04:00 +18°C° 0 mm 2 mps 664 mmHg 63%
    05:00 +18°C° 0 mm 3 mps 665 mmHg 57%
    06:00 +19°C° 0 mm 3 mps 665 mmHg 51%
    07:00 +21°C° 0 mm 4 mps 666 mmHg 42%
    08:00 +23°C° 0 mm 4 mps 666 mmHg 33%
    09:00 +26°C° 0 mm 4 mps 667 mmHg 24%
    10:00 +28°C° 0 mm 5 mps 667 mmHg 22%
    11:00 +29°C° 0 mm 6 mps 667 mmHg 19%
    12:00 +32°C° 0 mm 6 mps 667 mmHg 17%
    13:00 +32°C° 0 mm 6 mps 667 mmHg 17%
    14:00 +32°C° 0 mm 6 mps 666 mmHg 16%
    15:00 +32°C° 0 mm 5 mps 666 mmHg 16%
    16:00 +32°C° 0 mm 4 mps 665 mmHg 17%
    17:00 +31°C° 0 mm 3 mps 665 mmHg 17%
    18:00 +30°C° 0 mm 3 mps 665 mmHg 18%
    19:00 +29°C° 0 mm 2 mps 665 mmHg 22%
    20:00 +28°C° 0 mm 1 mps 665 mmHg 26%
    21:00 +27°C° 0 mm 1 mps 665 mmHg 30%
    22:00 +26°C° 0.1 mm 2 mps 664 mmHg 32%
    23:00 +25°C° 0.1 mm 3 mps 664 mmHg 34%

    Day after tomorrow, 7 June, Sunday

    Time Temperature Precipitation Wind Pressure Humidity
    00:00 +25°C° 0.1 mm 3 mps 663 mmHg 36%
    01:00 +23°C° 0 mm 4 mps 663 mmHg 36%
    02:00 +23°C° 0 mm 4 mps 662 mmHg 37%
    03:00 +23°C° 0 mm 5 mps 662 mmHg 37%
    04:00 +23°C° 0 mm 4 mps 662 mmHg 37%
    05:00 +24°C° 0 mm 3 mps 662 mmHg 36%
    06:00 +22°C° 0 mm 3 mps 662 mmHg 35%
    07:00 +23°C° 0 mm 4 mps 663 mmHg 34%
    08:00 +25°C° 0 mm 5 mps 663 mmHg 33%
    09:00 +26°C° 0 mm 6 mps 663 mmHg 31%
    10:00 +27°C° 0 mm 6 mps 663 mmHg 31%
    11:00 +27°C° 0 mm 5 mps 663 mmHg 30%
    12:00 +28°C° 0 mm 5 mps 663 mmHg 29%
    13:00 +28°C° 0 mm 5 mps 663 mmHg 28%
    14:00 +29°C° 0 mm 5 mps 663 mmHg 27%
    15:00 +29°C° 0 mm 5 mps 663 mmHg 26%
    16:00 +28°C° 0 mm 6 mps 662 mmHg 28%
    17:00 +28°C° 0 mm 7 mps 662 mmHg 30%
    18:00 +27°C° 0 mm 7 mps 662 mmHg 32%
    19:00 +26°C° 0 mm 7 mps 663 mmHg 36%
    20:00 +24°C° 0 mm 7 mps 663 mmHg 40%
    21:00 +23°C° 0 mm 7 mps 664 mmHg 43%
    22:00 +22°C° 0 mm 7 mps 663 mmHg 48%
    23:00 +21°C° 0 mm 6 mps 663 mmHg 53%

    8 June, Monday

    Time Temperature Precipitation Wind Pressure Humidity
    00:00 +20°C° 0 mm 6 mps 663 mmHg 57%
    01:00 +19°C° 0 mm 6 mps 662 mmHg 57%
    02:00 +17°C° 0 mm 7 mps 662 mmHg 57%
    03:00 +17°C° 0 mm 7 mps 662 mmHg 57%
    04:00 +17°C° 0 mm 7 mps 662 mmHg 55%
    05:00 +17°C° 0 mm 8 mps 662 mmHg 54%
    06:00 +16°C° 0 mm 8 mps 662 mmHg 52%
    07:00 +18°C° 0 mm 8 mps 663 mmHg 47%
    08:00 +20°C° 0 mm 8 mps 663 mmHg 42%
    09:00 +22°C° 0 mm 8 mps 664 mmHg 37%
    10:00 +23°C° 0 mm 8 mps 664 mmHg 35%
    11:00 +24°C° 0 mm 8 mps 664 mmHg 32%
    12:00 +26°C° 0 mm 7 mps 664 mmHg 30%
    13:00 +26°C° 0 mm 7 mps 664 mmHg 29%
    14:00 +27°C° 0 mm 7 mps 664 mmHg 28%
    15:00 +27°C° 0 mm 6 mps 663 mmHg 28%
    16:00 +26°C° 0 mm 7 mps 663 mmHg 30%
    17:00 +24°C° 0 mm 7 mps 663 mmHg 32%
    18:00 +24°C° 0 mm 8 mps 663 mmHg 34%
    19:00 +23°C° 0 mm 8 mps 663 mmHg 38%
    20:00 +21°C° 0 mm 8 mps 664 mmHg 43%
    21:00 +20°C° 0 mm 8 mps 664 mmHg 48%
    22:00 +18°C° 0 mm 7 mps 664 mmHg 51%
    23:00 +18°C° 0 mm 7 mps 664 mmHg 55%

    9 June, Tuesday

    Time Temperature Precipitation Wind Pressure Humidity
    00:00 +17°C° 0 mm 6 mps 664 mmHg 59%
    01:00 +16°C° 0 mm 6 mps 664 mmHg 60%
    02:00 +16°C° 0 mm 6 mps 663 mmHg 62%
    03:00 +15°C° 0 mm 6 mps 663 mmHg 63%
    04:00 +15°C° 0 mm 4 mps 663 mmHg 62%
    05:00 +16°C° 0 mm 3 mps 663 mmHg 60%
    06:00 +16°C° 0 mm 2 mps 664 mmHg 58%
    07:00 +19°C° 0 mm 1 mps 664 mmHg 51%
    08:00 +20°C° 0 mm 1 mps 665 mmHg 43%
    09:00 +20°C° 0 mm 0 mps 665 mmHg 36%
    10:00 +23°C° 0 mm 1 mps 665 mmHg 31%
    11:00 +25°C° 0 mm 2 mps 665 mmHg 26%
    12:00 +27°C° 0 mm 3 mps 666 mmHg 22%
    13:00 +27°C° 0 mm 3 mps 666 mmHg 21%
    14:00 +28°C° 0 mm 3 mps 665 mmHg 21%
    15:00 +28°C° 0 mm 3 mps 665 mmHg 20%
    16:00 +28°C° 0 mm 3 mps 665 mmHg 21%
    17:00 +28°C° 0 mm 3 mps 665 mmHg 22%
    18:00 +28°C° 0 mm 3 mps 665 mmHg 22%
    19:00 +27°C° 0.1 mm 3 mps 665 mmHg 26%
    20:00 +25°C° 0.1 mm 4 mps 665 mmHg 29%
    21:00 +23°C° 0.1 mm 4 mps 665 mmHg 32%
    22:00 +23°C° 0.1 mm 4 mps 665 mmHg 33%
    23:00 +23°C° 0.1 mm 4 mps 665 mmHg 33%

    10 June, Wednesday

    Time Temperature Precipitation Wind Pressure Humidity
    00:00 +23°C° 0.1 mm 4 mps 665 mmHg 34%
    01:00 +22°C° 0 mm 4 mps 665 mmHg 35%
    02:00 +22°C° 0 mm 4 mps 665 mmHg 36%
    03:00 +21°C° 0 mm 4 mps 664 mmHg 37%
    04:00 +21°C° 0 mm 5 mps 665 mmHg 41%
    05:00 +20°C° 0 mm 7 mps 665 mmHg 45%
    06:00 +20°C° 0 mm 8 mps 665 mmHg 49%
    07:00 +21°C° 0 mm 9 mps 665 mmHg 48%
    08:00 +22°C° 0 mm 9 mps 666 mmHg 46%
    09:00 +23°C° 0 mm 9 mps 666 mmHg 45%
    10:00 +24°C° 0 mm 10 mps 666 mmHg 41%
    11:00 +26°C° 0 mm 11 mps 665 mmHg 37%
    12:00 +28°C° 0 mm 13 mps 665 mmHg 33%
    13:00 +28°C° 0 mm 12 mps 665 mmHg 30%
    14:00 +29°C° 0 mm 12 mps 665 mmHg 27%
    15:00 +31°C° 0 mm 12 mps 664 mmHg 24%
    16:00 +31°C° 0 mm 12 mps 664 mmHg 24%
    17:00 +31°C° 0 mm 12 mps 664 mmHg 23%
    18:00 +31°C° 0 mm 11 mps 663 mmHg 22%
    19:00 +29°C° 0 mm 11 mps 664 mmHg 25%
    20:00 +27°C° 0 mm 11 mps 664 mmHg 27%
    21:00 +26°C° 0 mm 12 mps 664 mmHg 30%
    22:00 +24°C° 0 mm 10 mps 664 mmHg 32%
    23:00 +24°C° 0 mm 8 mps 664 mmHg 34%
    Show more